Weather History for Lewisburg, WV

Change the Weather History Date:

Wednesday, December 5, 2012

  Actual Average Record
Temperature  
Mean Temperature 42 °F 34 °F  
Max Temperature 55 °F 44 °F 68 °F (2001)
Min Temperature 28 °F 24 °F 5 °F (1974)
Degree Days  
Heating Degree Days 24    
Month to date heating degree days  
Since 1 July heating degree days  
Cooling Degree Days 0    
Month to date cooling degree days  
Year to date cooling degree days  
Moisture  
Dew Point 30 °F    
Average Humidity 64    
Maximum Humidity 87    
Minimum Humidity 32    
Precipitation  
Precipitation 0.00 in 0.11 in 0.14 in (2011)
Month to date precipitation 0.52  
Year to date precipitation 37.34  
Snow  
Snow 0.00 in - - ()
Month to date snowfall  
Since 1 July snowfall  
Snow Depth -    
Sea Level Pressure  
Sea Level Pressure 30.21 in    
Wind  
Wind Speed 4 mph (WNW)    
Max Wind Speed 10 mph    
Max Gust Speed -    
Visibility 10 miles    
Events Rain    
T = Trace of Precipitation, MM = Missing Value Source: NWS Daily Summary

Daily Weather History Graph

Daily Weather History Graph

Search for Another Location

Airport:

Trip Planner

Search our weather history database for the weather conditions in past years. The results will help you decide how hot, cold, wet, or windy it might be!

Date:

Astronomy

Dec. 05, 2012 Rise Set
Actual Time 7:22 AM EST 5:02 PM EST
Civil Twilight 6:53 AM EST 5:31 PM EST
Nautical Twilight 6:20 AM EST 6:04 PM EST
Astronomical Twilight 5:48 AM EST 6:35 PM EST
Moon 11:45 PM EST (12/5) 11:50 AM EST (12/5)
Length of Visible Light 10h 38m
Length of Day
9h 39m
Waning Gibbous, 60% of the Moon is Illuminated
Dec 5
Waning Gibbous
Dec 6
Last Quarter
Dec 13
New
Dec 20
First Quarter
Dec 28
Full

Hourly Weather History & Observations

Time (EST) Temp. Windchill Dew Point Humidity Pressure Visibility Wind Dir Wind Speed Gust Speed Precip Events Conditions
12:15 AM 53.6 °F - 41.0 °F 62% 30.13 in 10.0 mi SSW 5.8 mph - N/A   Overcast
12:35 AM 53.6 °F - 41.0 °F 62% 30.12 in 10.0 mi SW 4.6 mph - N/A   Overcast
12:55 AM 53.6 °F - 41.0 °F 62% 30.12 in 10.0 mi WSW 4.6 mph - N/A   Overcast
1:15 AM 55.4 °F - 41.0 °F 58% 30.12 in 10.0 mi West 8.1 mph - N/A   Overcast
1:35 AM 53.6 °F - 42.8 °F 67% 30.13 in 10.0 mi West 9.2 mph - N/A   Overcast
1:55 AM 53.6 °F - 44.6 °F 72% 30.13 in 10.0 mi West 8.1 mph - N/A   Overcast
2:15 AM 53.6 °F - 44.6 °F 72% 30.12 in 10.0 mi West 4.6 mph - N/A   Overcast
2:55 AM 51.8 °F - 44.6 °F 76% 30.14 in 10.0 mi NW 8.1 mph - N/A   Overcast
3:15 AM 50.0 °F - 41.0 °F 71% 30.13 in 10.0 mi NNW 10.4 mph - N/A   Overcast
3:35 AM 48.2 °F - 41.0 °F 76% 30.13 in 10.0 mi NNW 6.9 mph - N/A   Scattered Clouds
3:55 AM 48.2 °F - 39.2 °F 71% 30.14 in 10.0 mi NNW 3.5 mph - N/A   Mostly Cloudy
4:15 AM 46.4 °F 45.2 °F 39.2 °F 76% 30.14 in 10.0 mi WNW 3.5 mph - N/A   Overcast
4:35 AM 46.4 °F 45.2 °F 37.4 °F 71% 30.15 in 10.0 mi West 3.5 mph - N/A   Overcast
4:55 AM 44.6 °F - 37.4 °F 76% 30.15 in 10.0 mi Calm Calm - N/A   Overcast
5:15 AM 44.6 °F 43.1 °F 37.4 °F 76% 30.15 in 10.0 mi North 3.5 mph - N/A Rain Light Rain
5:35 AM 44.6 °F - 37.4 °F 76% 30.17 in 10.0 mi Calm Calm - N/A Rain Light Rain
5:55 AM 42.8 °F - 37.4 °F 81% 30.17 in 10.0 mi Calm Calm - N/A   Light Drizzle
6:15 AM 42.8 °F 41.1 °F 33.8 °F 70% 30.18 in 10.0 mi ENE 3.5 mph - N/A   Overcast
6:55 AM 42.8 °F - 32.0 °F 66% 30.20 in 10.0 mi Calm Calm - N/A   Overcast
7:15 AM 41.0 °F - 32.0 °F 70% 30.20 in 10.0 mi Calm Calm - N/A   Overcast
7:35 AM 41.0 °F - 33.8 °F 76% 30.22 in 10.0 mi Calm Calm - N/A   Overcast
7:55 AM 41.0 °F - 32.0 °F 70% 30.22 in 10.0 mi Calm Calm - N/A   Overcast
9:35 AM 41.0 °F 39.0 °F 28.4 °F 61% 30.25 in 10.0 mi NW 3.5 mph - N/A   Clear
9:55 AM 41.0 °F - 28.4 °F 61% 30.25 in 10.0 mi Calm Calm - N/A   Clear
10:15 AM 41.0 °F - 28.4 °F 61% 30.26 in 10.0 mi Calm Calm - N/A   Clear
10:35 AM 42.8 °F 39.3 °F 26.6 °F 53% 30.26 in 10.0 mi NW 5.8 mph - N/A   Clear
10:55 AM 41.0 °F 37.1 °F 30.2 °F 65% 30.26 in 10.0 mi West 5.8 mph - N/A   Clear
11:15 AM 41.0 °F 37.1 °F 30.2 °F 65% 30.26 in 10.0 mi West 5.8 mph - N/A   Clear
11:35 AM 42.8 °F 40.1 °F 30.2 °F 61% 30.25 in 10.0 mi WNW 4.6 mph - N/A   Clear
11:55 AM 42.8 °F 39.3 °F 28.4 °F 57% 30.24 in 10.0 mi West 5.8 mph - N/A   Clear
12:15 PM 44.6 °F 40.7 °F 28.4 °F 53% 30.23 in 10.0 mi WNW 6.9 mph - N/A   Clear
12:35 PM 46.4 °F 42.9 °F 26.6 °F 46% 30.22 in 10.0 mi West 6.9 mph - N/A   Clear
12:55 PM 46.4 °F 41.5 °F 23.0 °F 40% 30.22 in 10.0 mi West 10.4 mph - N/A   Clear
1:15 PM 46.4 °F 41.9 °F 23.0 °F 40% 30.22 in 10.0 mi WNW 9.2 mph - N/A   Clear
1:35 PM 46.4 °F 42.9 °F 21.2 °F 37% 30.21 in 10.0 mi NW 6.9 mph - N/A   Clear
1:55 PM 46.4 °F 41.9 °F 21.2 °F 37% 30.21 in 10.0 mi WNW 9.2 mph - N/A   Clear
2:15 PM 46.4 °F 43.5 °F 19.4 °F 34% 30.21 in 10.0 mi WNW 5.8 mph - N/A   Clear
2:55 PM 46.4 °F 42.9 °F 17.6 °F 32% 30.20 in 10.0 mi NW 6.9 mph - N/A   Clear
3:15 PM 46.4 °F 44.3 °F 19.4 °F 34% 30.20 in 10.0 mi NW 4.6 mph - N/A   Clear
3:35 PM 46.4 °F 41.9 °F 19.4 °F 34% 30.21 in 10.0 mi NNW 9.2 mph - N/A   Clear
3:55 PM 46.4 °F 43.5 °F 21.2 °F 37% 30.21 in 10.0 mi NW 5.8 mph - N/A   Clear
4:15 PM 44.6 °F 41.4 °F 23.0 °F 43% 30.21 in 10.0 mi NNW 5.8 mph - N/A   Clear
4:35 PM 44.6 °F 41.4 °F 23.0 °F 43% 30.21 in 10.0 mi NNW 5.8 mph - N/A   Clear
4:55 PM 42.8 °F 40.1 °F 23.0 °F 46% 30.22 in 10.0 mi NW 4.6 mph - N/A   Clear
5:15 PM 41.0 °F 38.0 °F 26.6 °F 57% 30.22 in 10.0 mi NNW 4.6 mph - N/A   Clear
5:35 PM 39.2 °F - 24.8 °F 56% 30.23 in 10.0 mi Calm Calm - N/A   Clear
5:55 PM 39.2 °F 37.0 °F 26.6 °F 61% 30.24 in 10.0 mi NW 3.5 mph - N/A   Clear
6:15 PM 37.4 °F 33.8 °F 26.6 °F 65% 30.24 in 10.0 mi NW 4.6 mph - N/A   Clear
6:35 PM 37.4 °F 34.9 °F 28.4 °F 70% 30.24 in 10.0 mi NW 3.5 mph - N/A   Clear
6:55 PM 37.4 °F 34.9 °F 28.4 °F 70% 30.25 in 10.0 mi NW 3.5 mph - N/A   Clear
7:15 PM 37.4 °F 34.9 °F 28.4 °F 70% 30.25 in 10.0 mi NW 3.5 mph - N/A   Clear
7:35 PM 37.4 °F - 28.4 °F 70% 30.26 in 10.0 mi Calm Calm - N/A   Clear
7:55 PM 35.6 °F 31.7 °F 28.4 °F 75% 30.25 in 10.0 mi NW 4.6 mph - N/A   Clear
8:15 PM 33.8 °F - 26.6 °F 75% 30.26 in 10.0 mi Calm Calm - N/A   Clear
8:35 PM 32.0 °F - 26.6 °F 80% 30.26 in 10.0 mi Calm Calm - N/A   Clear
8:55 PM 32.0 °F - 26.6 °F 80% 30.26 in 10.0 mi Calm Calm - N/A   Clear
9:15 PM 30.2 °F - 26.6 °F 86% 30.26 in 10.0 mi Calm Calm - N/A   Clear
9:35 PM 32.0 °F - 26.6 °F 80% 30.26 in 10.0 mi Calm Calm - N/A   Clear
9:55 PM 32.0 °F - 26.6 °F 80% 30.25 in 10.0 mi Calm Calm - N/A   Clear
10:15 PM 32.0 °F - 28.4 °F 87% 30.25 in 10.0 mi Calm Calm - N/A   Clear
10:35 PM 30.2 °F - 24.8 °F 80% 30.25 in 10.0 mi Calm Calm - N/A   Clear
10:55 PM 28.4 °F - 24.8 °F 86% 30.25 in 10.0 mi Calm Calm - N/A   Clear
11:15 PM 28.4 °F - 24.8 °F 86% 30.25 in 10.0 mi Calm Calm - N/A   Clear
11:35 PM 28.4 °F 24.6 °F 24.8 °F 86% 30.25 in 10.0 mi North 3.5 mph - N/A   Clear
11:55 PM 28.4 °F - 24.8 °F 86% 30.25 in 10.0 mi Calm Calm - N/A   Clear